| time (UTC) | temp F | wind direction | speed knots | gust knots | rain 1hr in | rain 24hr in | rain mn in | humidity % | barometer mb |
| 20260504021803 | 66 | 170 | 0.0 | 0.0 | 0.00 | 0.00 | 0.00 | 65 | 1006.8 |
| 20260504021303 | 66 | 170 | 0.0 | 0.0 | 0.00 | 0.00 | 0.00 | 65 | 1006.8 |
| 20260504020803 | 66 | 170 | 0.0 | 0.0 | 0.00 | 0.00 | 0.00 | 66 | 1006.6 |
| 20260504020303 | 66 | 170 | 0.0 | 0.0 | 0.00 | 0.00 | 0.00 | 63 | 1006.5 |
| 20260504014802 | 67 | 170 | 0.0 | 0.0 | 0.00 | 0.00 | 0.00 | 61 | 1006.6 |
| 20260504014303 | 67 | 170 | 0.0 | 0.0 | 0.00 | 0.00 | 0.00 | 61 | 1006.6 |
| 20260504013803 | 67 | 170 | 0.0 | 0.0 | 0.00 | 0.00 | 0.00 | 60 | 1006.6 |
| 20260504013303 | 68 | 170 | 0.0 | 0.0 | 0.00 | 0.00 | 0.00 | 60 | 1006.5 |
| 20260504011803 | 69 | 170 | 0.0 | 0.0 | 0.00 | 0.00 | 0.00 | 58 | 1006.5 |
| 20260504011303 | 70 | 170 | 0.0 | 0.0 | 0.00 | 0.00 | 0.00 | 57 | 1006.5 |
| 20260504010802 | 70 | 170 | 0.0 | 0.0 | 0.00 | 0.00 | 0.00 | 56 | 1006.5 |
| 20260504010302 | 70 | 170 | 0.0 | 0.0 | 0.00 | 0.00 | 0.00 | 55 | 1006.6 |
| 20260504004802 | 72 | 170 | 0.0 | 0.0 | 0.00 | 0.00 | 0.00 | 54 | 1006.6 |
| 20260504003302 | 73 | 170 | 0.0 | 0.0 | 0.00 | 0.00 | 0.00 | 53 | 1006.7 |
| 20260504001803 | 75 | 0 | 0.0 | 0.0 | 0.00 | 0.00 | 0.00 | 51 | 1006.8 |
| 20260504001303 | 75 | 171 | 0.0 | 0.0 | 0.00 | 0.00 | 0.00 | 54 | 1006.8 |
| 20260504000803 | 76 | 170 | 0.0 | 0.0 | 0.00 | 0.00 | 0.00 | 47 | 1006.8 |
| 20260504000303 | 76 | 170 | 0.0 | 0.0 | 0.00 | 0.00 | 0.00 | 48 | 1006.9 |
| 20260503234803 | 76 | 170 | 0.0 | 0.0 | 0.00 | 0.00 | 0.00 | 45 | 1006.9 |
| 20260503234302 | 76 | 170 | 0.0 | 0.0 | 0.00 | 0.00 | 0.00 | 44 | 1007.0 |
| 20260503233803 | 76 | 130 | 0.0 | 0.0 | 0.00 | 0.00 | 0.00 | 45 | 1007.0 |
| 20260503233303 | 77 | 215 | 0.0 | 0.0 | 0.00 | 0.00 | 0.00 | 42 | 1006.9 |
| 20260503231803 | 77 | 215 | 0.0 | 0.0 | 0.00 | 0.00 | 0.00 | 42 | 1006.9 |
| 20260503231303 | 78 | 213 | 0.0 | 0.0 | 0.00 | 0.00 | 0.00 | 41 | 1006.8 |
| 20260503230802 | 78 | 220 | 0.0 | 0.0 | 0.00 | 0.00 | 0.00 | 42 | 1006.9 |
| 20260503224803 | 79 | 238 | 0.0 | 0.0 | 0.00 | 0.00 | 0.00 | 40 | 1007.0 |
| 20260503224302 | 79 | 212 | 0.0 | 0.0 | 0.00 | 0.00 | 0.00 | 39 | 1007.0 |
| 20260503223802 | 79 | 211 | 0.0 | 0.0 | 0.00 | 0.00 | 0.00 | 39 | 1007.0 |
| 20260503223302 | 79 | 224 | 0.0 | 4.3 | 0.00 | 0.00 | 0.00 | 40 | 1007.0 |
| 20260503221803 | 79 | 175 | 0.0 | 4.3 | 0.00 | 0.00 | 0.00 | 39 | 1007.1 |
| 20260503221302 | 79 | 205 | 0.0 | 2.6 | 0.00 | 0.00 | 0.00 | 39 | 1007.0 |
| 20260503220802 | 79 | 217 | 0.0 | 0.0 | 0.00 | 0.00 | 0.00 | 38 | 1007.1 |
| 20260503220302 | 79 | 204 | 0.0 | 5.2 | 0.00 | 0.00 | 0.00 | 39 | 1007.1 |
| 20260503214803 | 80 | 218 | 0.0 | 2.6 | 0.00 | 0.00 | 0.00 | 41 | 1007.2 |
| 20260503214303 | 80 | 220 | 0.0 | 1.7 | 0.00 | 0.00 | 0.00 | 40 | 1007.2 |
| 20260503213802 | 79 | 214 | 0.0 | 1.7 | 0.00 | 0.00 | 0.00 | 41 | 1007.2 |
| 20260503213302 | 79 | 282 | 0.0 | 2.6 | 0.00 | 0.00 | 0.00 | 41 | 1007.4 |
| 20260503211803 | 79 | 214 | 0.0 | 2.6 | 0.00 | 0.00 | 0.00 | 39 | 1007.5 |
| 20260503211303 | 79 | 199 | 0.0 | 4.3 | 0.00 | 0.00 | 0.00 | 41 | 1007.6 |
| 20260503210803 | 79 | 245 | 0.9 | 5.2 | 0.00 | 0.00 | 0.00 | 40 | 1007.6 |
| 20260503210303 | 79 | 235 | 0.0 | 6.1 | 0.00 | 0.00 | 0.00 | 39 | 1007.6 |
| 20260503204303 | 78 | 220 | 0.9 | 6.1 | 0.00 | 0.00 | 0.00 | 40 | 1008.0 |
| 20260503203803 | 78 | 226 | 0.0 | 2.6 | 0.00 | 0.00 | 0.00 | 38 | 1008.0 |
| 20260503203303 | 79 | 217 | 0.9 | 5.2 | 0.00 | 0.00 | 0.00 | 40 | 1008.1 |
| 20260503201802 | 79 | 195 | 0.9 | 6.1 | 0.00 | 0.00 | 0.00 | 38 | 1008.3 |
| 20260503201303 | 78 | 173 | 0.0 | 0.0 | 0.00 | 0.00 | 0.00 | 40 | 1008.4 |
| 20260503200303 | 78 | 176 | 0.0 | 7.0 | 0.00 | 0.00 | 0.00 | 37 | 1008.4 |
| 20260503193802 | 78 | 203 | 0.0 | 0.9 | 0.00 | 0.00 | 0.00 | 39 | 1009.0 |
| 20260503193302 | 78 | 225 | 0.0 | 8.7 | 0.00 | 0.00 | 0.00 | 42 | 1009.0 |
| 20260503191803 | 77 | 167 | 0.0 | 2.6 | 0.00 | 0.00 | 0.00 | 39 | 1009.2 |
| 20260503191303 | 77 | 202 | 0.0 | 0.9 | 0.00 | 0.00 | 0.00 | 39 | 1009.2 |
| 20260503190803 | 76 | 168 | 1.7 | 13.9 | 0.00 | 0.00 | 0.00 | 41 | 1009.3 |
| 20260503190302 | 76 | 176 | 1.7 | 8.7 | 0.00 | 0.00 | 0.00 | 40 | 1009.3 |
| 20260503184803 | 75 | 165 | 0.9 | 7.0 | 0.00 | 0.00 | 0.00 | 39 | 1009.9 |
| 20260503184302 | 75 | 174 | 0.9 | 8.7 | 0.00 | 0.00 | 0.00 | 40 | 1010.0 |
| 20260503183803 | 74 | 158 | 0.9 | 10.4 | 0.00 | 0.00 | 0.00 | 40 | 1010.1 |
| 20260503183302 | 75 | 169 | 0.0 | 14.8 | 0.00 | 0.00 | 0.00 | 40 | 1010.2 |
| 20260503181803 | 74 | 160 | 1.7 | 8.7 | 0.00 | 0.00 | 0.00 | 40 | 1010.6 |
| 20260503181302 | 74 | 194 | 0.0 | 7.0 | 0.00 | 0.00 | 0.00 | 43 | 1010.8 |
| 20260503180803 | 74 | 169 | 0.9 | 11.3 | 0.00 | 0.00 | 0.00 | 42 | 1010.9 |
| 20260503180303 | 73 | 214 | 0.0 | 6.1 | 0.00 | 0.00 | 0.00 | 43 | 1011.0 |
| 20260503174302 | 73 | 208 | 0.0 | 2.6 | 0.00 | 0.00 | 0.00 | 42 | 1011.8 |
| 20260503173802 | 74 | 195 | 0.0 | 1.7 | 0.00 | 0.00 | 0.00 | 42 | 1011.9 |
| 20260503173303 | 73 | 179 | 0.0 | 2.6 | 0.00 | 0.00 | 0.00 | 41 | 1012.1 |
| 20260503171803 | 71 | 208 | 0.0 | 1.7 | 0.00 | 0.00 | 0.00 | 45 | 1012.6 |
| 20260503171302 | 71 | 163 | 0.0 | 2.6 | 0.00 | 0.00 | 0.00 | 41 | 1012.6 |
| 20260503170803 | 70 | 163 | 0.0 | 7.8 | 0.00 | 0.00 | 0.00 | 43 | 1012.7 |
| 20260503150803 | 61 | 154 | 0.0 | 0.0 | 0.00 | 0.00 | 0.00 | 51 | 1014.9 |
| 20260503131302 | 48 | 167 | 0.0 | 0.0 | 0.00 | 0.00 | 0.00 | 74 | 1015.8 |
| 20260503130803 | 48 | 177 | 0.0 | 0.0 | 0.00 | 0.00 | 0.00 | 75 | 1016.0 |
| 20260503130303 | 47 | 151 | 0.0 | 1.7 | 0.00 | 0.00 | 0.00 | 75 | 1015.8 |
| 20260503110302 | 40 | 327 | 0.0 | 0.0 | 0.00 | 0.00 | 0.00 | 87 | 1015.5 |
| 20260503090303 | 39 | 327 | 0.0 | 0.0 | 0.00 | 0.00 | 0.00 | 90 | 1016.2 |
| 20260503081303 | 40 | 327 | 0.0 | 0.0 | 0.00 | 0.00 | 0.00 | 89 | 1016.3 |
| 20260503080803 | 40 | 327 | 0.0 | 0.0 | 0.00 | 0.00 | 0.00 | 89 | 1016.3 |
| 20260503080303 | 40 | 327 | 0.0 | 0.0 | 0.00 | 0.00 | 0.00 | 88 | 1016.4 |
| 20260503070803 | 41 | 327 | 0.0 | 0.0 | 0.00 | 0.00 | 0.00 | 88 | 1016.8 |
| 20260503060303 | 41 | 327 | 0.0 | 0.0 | 0.00 | 0.00 | 0.00 | 88 | 1017.2 |
| 20260503054803 | 41 | 327 | 0.0 | 0.0 | 0.00 | 0.00 | 0.00 | 86 | 1017.3 |
| 20260503053803 | 41 | 327 | 0.0 | 0.0 | 0.00 | 0.00 | 0.00 | 87 | 1017.5 |
| 20260503053303 | 41 | 327 | 0.0 | 0.0 | 0.00 | 0.00 | 0.00 | 86 | 1017.5 |
| 20260503050803 | 42 | 327 | 0.0 | 0.0 | 0.00 | 0.00 | 0.00 | 86 | 1017.6 |
| 20260503050303 | 42 | 327 | 0.0 | 0.0 | 0.00 | 0.00 | 0.00 | 86 | 1017.6 |
| 20260503044303 | 42 | 327 | 0.0 | 0.0 | 0.00 | 0.00 | 0.00 | 84 | 1017.6 |
| 20260503043803 | 42 | 327 | 0.0 | 0.0 | 0.00 | 0.00 | 0.00 | 84 | 1017.5 |
| 20260503043303 | 43 | 327 | 0.0 | 0.0 | 0.00 | 0.00 | 0.00 | 84 | 1017.6 |
| 20260503041803 | 43 | 327 | 0.0 | 0.0 | 0.00 | 0.00 | 0.00 | 82 | 1017.6 |
| 20260503041303 | 44 | 327 | 0.0 | 0.0 | 0.00 | 0.00 | 0.00 | 83 | 1017.6 |
| 20260503040803 | 44 | 327 | 0.0 | 0.0 | 0.00 | 0.00 | 0.00 | 83 | 1017.5 |
| 20260503040303 | 44 | 327 | 0.0 | 0.0 | 0.00 | 0.00 | 0.00 | 83 | 1017.5 |
| 20260503034803 | 44 | 327 | 0.0 | 0.0 | 0.00 | 0.00 | 0.00 | 82 | 1017.6 |
| 20260503034303 | 44 | 327 | 0.0 | 0.0 | 0.00 | 0.00 | 0.00 | 82 | 1017.6 |
| 20260503033803 | 44 | 327 | 0.0 | 0.0 | 0.00 | 0.00 | 0.00 | 81 | 1017.6 |
| 20260503033303 | 45 | 327 | 0.0 | 0.0 | 0.00 | 0.00 | 0.00 | 81 | 1017.6 |
| 20260503031803 | 45 | 327 | 0.0 | 0.0 | 0.00 | 0.00 | 0.00 | 79 | 1017.8 |
| 20260503031303 | 46 | 327 | 0.0 | 0.0 | 0.00 | 0.00 | 0.00 | 78 | 1017.8 |
| 20260503030303 | 46 | 327 | 0.0 | 0.0 | 0.00 | 0.00 | 0.00 | 77 | 1017.7 |
| 20260503024803 | 46 | 327 | 0.0 | 0.0 | 0.00 | 0.00 | 0.00 | 76 | 1017.6 |
| 20260503024303 | 46 | 327 | 0.0 | 0.0 | 0.00 | 0.00 | 0.00 | 76 | 1017.7 |
| 20260503023803 | 47 | 327 | 0.0 | 0.0 | 0.00 | 0.00 | 0.00 | 75 | 1017.6 |